Content
SEND FEEDBACK

Daily
Averages
Monthly
Summary
United States of America

UMATAC, GUAM


Home > North America > United States > Guam
Elevation: 190 feet     Latitude: 13 17N     Longitude: 144 40E

WEATHER
 
SELECT A DAY
Number of Records: 342,166;   Date Range: 1/1/95 - 8/12/14
 
SHARE

PRINT THIS DATA

[ ← Previous Day ]
WEATHER ALMANAC - SEPTEMBER 4, 2013
[ Next Day → ]
[ °C ]   °F
Weather ElementAverageHighLow
Temperature79.6 °F85.6 °F (12:58 pm)75.2 °F (1:28 am)
Dewpoint73.8 °F77.2 °F (10:58 am)71.6 °F (1:28 am)
Humidity82.9 %95 % (4:58 am)70 % (1:24 pm)
Barometer29.83 in29.88 in (12:58 am)29.78 in (2:58 am)
Wind Speed6.1 mph17.3 mph (12:48 am)
Wind Gust27.6 mph (12:53 am)
Weather ElementAverage
Visibility9.9 mi
Wind DirectionSE (130.2 °)

Weather ElementTotal
Precipitation0.02 in
Cooling Degree Days15.4 (Base 65)
Growing Degree Days30.4 (Base 50)
Averaged from 44 records on September 4, 2013
WEATHER CONDITIONS BREAKOUT
WIND DIRECTION BREAKOUT
WEATHER BY HOUR - SEPTEMBER 4, 2013
[ °C ]   °F
Local TimeTemperatureDewpointHumidityBarometerVisibilityWind DirectionWind SpeedGust SpeedPrecipitationEventsConditions
12:38 AM77.0 °F73.4 °F89 %29.87 in10.0 miNNW (330°)12.7 mphThunderstormThunderstorm
12:48 AM77.0 °F73.4 °F89 %29.87 in10.0 miNNW (340°)17.3 mph23.0 mphThunderstormThunderstorm
12:53 AM77.0 °F73.4 °F89 %29.87 in10.0 miNorth (10°)11.5 mph27.6 mphThunderstormMostly Cloudy
12:58 AM77.0 °F73.4 °F89 %29.88 in9.0 miNorth (360°)13.8 mph27.6 mphThunderstormMostly Cloudy
1:28 AM75.2 °F71.6 °F89 %29.84 in9.0 miNorth (10°)8.1 mphMostly Cloudy
1:29 AM75.2 °F71.6 °F89 %29.84 in9.0 miNorth (360°)8.1 mphLight Drizzle
1:34 AM75.2 °F71.6 °F89 %29.83 in9.0 miNorth (350°)5.8 mphLight Drizzle
1:40 AM75.2 °F71.6 °F89 %29.82 in10.0 miSW (230°)4.6 mphScattered Clouds
1:58 AM75.2 °F71.6 °F89 %29.80 in10.0 miWNW (290°)4.6 mph0.00 inPartly Cloudy
2:15 AM75.2 °F71.6 °F89 %29.80 in10.0 miWSW (250°)3.5 mphLight Drizzle
2:19 AM75.2 °F71.6 °F89 %29.79 in10.0 miWSW (250°)2.3 mphClear
2:31 AM75.2 °F71.6 °F89 %29.79 in10.0 miSSW (200°)2.3 mphRainLight Rain
2:58 AM76.1 °F72.3 °F88 %29.78 in10.0 miSSW (200°)4.6 mph0.01 inRainLight Rain
3:58 AM76.6 °F73.9 °F91 %29.79 in10.0 miSE (130°)6.9 mph0.01 inRainLight Rain
4:16 AM77.0 °F73.4 °F89 %29.79 in10.0 miCalmPartly Cloudy
4:58 AM75.7 °F74.3 °F95 %29.81 in10.0 miSSW (210°)3.5 mph0.00 inMostly Cloudy
5:58 AM75.7 °F74.3 °F95 %29.82 in10.0 miSW (230°)2.3 mphClear
6:58 AM77.9 °F73.9 °F88 %29.85 in10.0 miSSE (160°)3.5 mphClear
7:58 AM79.2 °F74.3 °F85 %29.87 in10.0 miESE (110°)4.6 mphClear
8:58 AM82.8 °F72.9 °F72 %29.87 in10.0 miENE (60°)3.5 mphClear
9:58 AM82.4 °F73.8 °F75 %29.88 in10.0 miENE (70°)6.9 mphPartly Cloudy
10:58 AM83.1 °F77.2 °F82 %29.86 in10.0 miENE (70°)9.2 mphMostly Cloudy
11:58 AM83.3 °F75.4 °F77 %29.85 in10.0 miEast (80°)10.4 mphMostly Cloudy
12:58 PM85.6 °F76.3 °F73 %29.83 in10.0 miESE (120°)11.5 mphScattered Clouds
1:24 PM84.2 °F73.4 °F70 %29.83 in10.0 miESE (120°)11.5 mphThunderstormThunderstorm
1:28 PM84.2 °F73.4 °F70 %29.83 in10.0 miSE (130°)10.4 mphThunderstormThunderstorm
1:32 PM84.2 °F73.4 °F70 %29.83 in10.0 miSE (130°)11.5 mphPartly Cloudy
1:37 PM84.2 °F73.4 °F70 %29.82 in10.0 miSE (140°)9.2 mphClear
1:39 PM84.2 °F73.4 °F70 %29.82 in10.0 miSE (140°)9.2 mphScattered Clouds
1:58 PM83.1 °F73.6 °F73 %29.82 in10.0 miVariable3.5 mphScattered Clouds
2:58 PM83.7 °F75.2 °F76 %29.80 in10.0 miESE (110°)6.9 mphClear
3:58 PM82.6 °F74.5 °F76 %29.80 in10.0 miESE (110°)5.8 mphClear
4:58 PM82.6 °F73.8 °F75 %29.79 in10.0 miNNE (30°)1.2 mphClear
5:58 PM82.0 °F73.9 °F76 %29.80 in10.0 miCalmClear
6:58 PM81.3 °F74.3 °F79 %29.83 in10.0 miCalmClear
7:58 PM80.6 °F74.8 °F83 %29.85 in10.0 miCalmClear
8:58 PM81.1 °F75.0 °F82 %29.85 in10.0 miCalmClear
9:39 PM80.6 °F75.2 °F84 %29.86 in10.0 miENE (60°)4.6 mphLight Drizzle
9:51 PM80.6 °F75.2 °F84 %29.87 in10.0 miENE (60°)4.6 mphClear
9:58 PM80.1 °F75.9 °F87 %29.87 in10.0 miENE (60°)5.8 mph0.00 inClear
9:59 PM80.6 °F75.2 °F84 %29.87 in10.0 miENE (60°)5.8 mphLight Drizzle
10:08 PM80.6 °F75.2 °F84 %29.87 in10.0 miNE (40°)4.6 mphPartly Cloudy
10:58 PM79.5 °F75.2 °F87 %29.86 in10.0 miENE (60°)5.8 mph0.00 inClear
11:58 PM79.2 °F75.7 °F89 %29.85 in10.0 miENE (60°)5.8 mphClear
Hourly data recorded from PGUA, located miles away from Umatac, Guam







STORIES FROM OUR PARTNERS